sat.trackr.live / text

‹ back to catalog

HULIANWANG DIGUI-135

NORAD 67243 · 2025-311H

PAYLOAD ACTIVE UNKNOWN

§ Identity

Operator
Country
PRC
Launch date
2025-12-25
Launch site
WSC
Launch vehicle
Mass (kg)
RCS (m²)

External: N2YO · Heavens-Above · Gunter

§ Orbital elements

Epoch: 2026-09-20T22:34:16.804992Z

Period
108.33 min
Inclination
50.0010°
Eccentricity
0.0000178
Mean motion
13.29327088 rev/d
Perigee alt
1,149.2 km
Apogee alt
1,149.4 km
Semi-major
7,527.4 km
B*
3.6519e-5
RAAN
132.4590°
Arg perigee
337.4464°
Mean anomaly
22.6401°
Rev number
3,607

§ Raw data

HULIANWANG DIGUI-1351 67243U 25311H   26263.94047228 -.00000107  00000+0  36519-4 0  99952 67243  50.0010 132.4590 0000178 337.4464  22.6401 13.29327088 36075

JSON: /api/v1/satellites/67243 · /tle

For live sub-satellite position, see the globe view (requires WebGL).

§ Visibility from observer

Set your observer location to see the next 7 days of passes ≥ 10°. The values pass through the URL so the page stays shareable.

No JS? Fill the form by hand. The geolocation button needs JavaScript.